Regional Weather Roundup
Issued by NWS Newport/Morehead, NC

Home | Current Version | Previous Version | Text Only | Print | Product List | Glossary On
Versions: 1 2 3 4 5 6 7 8 9 10 11 12 13 14 15 16 17 18 19 20 21 22 23 24 25 26 27 28 29 30 31 32 33 34 35 36 37 38 39 40 41 42 43 44 45 46 47 48 49 50
506
ASUS42 KMHX 200425
RWRMHX
WEATHER ROUNDUP FOR EASTERN NORTH CAROLINA
NATIONAL WEATHER SERVICE NEWPORT/MOREHEAD CITY NC
1100 PM EST THU JAN 19 2017

NOTE: "FAIR" INDICATES FEW OR NO CLOUDS BELOW 12,000 FEET
WITH NO SIGNIFICANT WEATHER AND/OR OBSTRUCTIONS TO VISIBILITY

NCZ015>017-031-032-045>047-102-103-200500-
NORTH COAST

CITY           SKY/WX    TMP DP  RH WIND       PRES   REMARKS
EDENTON        CLOUDY    44  41  89 CALM      30.04F
ELIZABETH CITY PTCLDY    40  38  93 S5        30.05R
KITTY HAWK     NOT AVBL
MANTEO         PTCLDY    42  42 100 CALM      30.05R

$$

NCZ045>047-081-094-103-104-200500-
CENTRAL COAST

CITY           SKY/WX    TMP DP  RH WIND       PRES   REMARKS
FRISCO         CLEAR     45  42  89 E5        30.04S FOG

$$

NCZ095-097-098-100-101-200500-
SOUTHERN COAST

CITY           SKY/WX    TMP DP  RH WIND       PRES   REMARKS
BEAUFORT       PTCLDY    46  44  93 E6        30.01F
CEDAR ISLAND   NOT AVBL
JACKSONVILLE   CLEAR     44  44 100 CALM      30.00S
PINEY ISLAND   CLOUDY   N/A N/A N/A E6        30.02F
WILMINGTON     MOCLDY    45  44  97 CALM      30.01R


$$

NCZ011>013-027>030-043-044-078>080-089-090>093-098-200500-
COASTAL PLAIN

CITY           SKY/WX    TMP DP  RH WIND       PRES   REMARKS
AHOSKIE          N/A     39  37  93 CALM      30.02F
CLINTON        PTCLDY    46  45  96 CALM      30.01R
ELIZABETHTOWN  CLOUDY    49  45  88 CALM      30.01S
GOLDSBORO      CLOUDY    45  44  99 E3        29.99R
GREENVILLE     PTCLDY    43  41  93 E5        30.03S
HAVELOCK       CLOUDY    42  40  92 E5        30.02F
KENANSVILLE    CLOUDY    41  39  93 CALM      30.02R
KINSTON        CLOUDY    42  40  91 CALM      30.03R
NEW BERN       CLOUDY    41  39  93 CALM      30.02F
RICHLANDS      CLEAR     40  40 100 CALM      30.01S
ROCKY MOUNT    CLOUDY    41  40  96 SW3       30.01S
WASHINGTON     CLEAR     43  41  95 CALM        N/A
WHITEVILLE     CLOUDY    51  45  80 CALM      30.01R

$$

AMZ130-135-150-152-154-156-158-170-250-252-270-ANZ085-086-088-633-658-670-200500-
MARINE OBSERVATIONS

STATION/POSITION TIME  TEMP    WIND        PRES    WAVE   SWELL
                       AIR SEA DIR/SP/G            HT/PER HT/PER
                 (UTC) (F)     (DEG/KT/KT) (MB)    (FT/S) (FT/S)
CHESAPEAKE LIGHT NOT AVBL
64 E VA BEACH    0350   49 57   40/  6/  8 1016.8    5/11   5/11
DUCK             0400   45 45  180/  4/  5 1016.8
2 E DUCK         0400      45                N/A     4/11   2/11
OREGON INLET     0400   45 49  200/  4/  5 1017.5
13E OREGON INLT  NOT AVBL
HATTERAS CG      0400   48 55   80/  4/  6 1016.7
DIAMOND BUOY     0350   55 76   20/  4/  8 1017.3    4/10   3/10
CAPE LOOKOUT     0400   54      20/  2/  3 1016.0
BEAUFORT LAB     0400   49 51   50/  5/  5 1015.1
30 SE NEW RVR IN 0408   59 62  110/  8/ 12 1015.9
30 SE NEW RVR IN 0413      62                N/A     3/ 9
27 SE WRIGHTSVLE 0408   62 71  110/  8/ 12 1015.4
5 SE WRIGHTSVLE  NOT AVBL
225 S CAPE HAT   0350   67 71   20/  2/  6 1016.3    6/ 9   7/ 9
41 SE CHARLESTON 0350   69 71   80/ 12/ 14 1014.2    3/10   2/10

$$




USA.gov is the U.S. government's official web portal to all federal, state and local government web resources and services.